Tracking 19795 objects as of 20-Jul-2019
HD Live streaming from Space Station
objects crossing your sky now

FLOCK 1B 17


FLOCK 1B 17 is no longer on orbit
FLOCK 1B 17 is classified as:


NORAD ID: 40140
Int'l Code: 1998-067FF
Perigee: N/A
Apogee: N/A
Inclination: N/A
Period: N/A
Semi major axis: N/A
RCS: N/A
Launch date: November 20, 1998
Source: United States (US)
Launch site: TYURATAM MISSILE AND SPACE COMPLEX (TTMTR)
Decay date: 2015-03-04
aabbcc
Your satellite tracking list
Your tracking list is empty




NASA's NSSDC Master Catalog

Two Line Element Set (TLE):
1 40140U 98067FF  15063.14698307  .13772871  12393-4  48010-3 0  9996
2 40140 051.6113 224.8850 0018189 255.4791 105.6477 16.42508635 28243
Source of the keplerian elements: AFSPC